Regional Weather Roundup
Issued by NWS

Home | Current Version | Previous Version | Text Only | Print | Product List | Glossary On
Versions: 1 2 3 4 5 6 7 8 9 10 11 12 13 14 15 16 17 18 19 20 21 22 23 24 25 26 27 28 29 30 31 32 33 34 35 36 37 38 39 40 41 42 43 44 45 46 47 48 49 50
000
ASUS44 KLIX 240013
RWRLA
LOUISIANA WEATHER ROUNDUP
NATIONAL WEATHER SERVICE NEW ORLEANS LA
700 PM CDT THU MAR 23 2017

NOTE: "FAIR" INDICATES FEW OR NO CLOUDS BELOW 12,000 FEET WITH NO
      SIGNIFICANT WEATHER AND/OR OBSTRUCTIONS TO VISIBILITY.
      SKY/WX - SKY CONDITION AND SIGNIFICANT WEATHER.
      TMP - AIR TEMPERATURE.    DP   - DEWPOINT TEMPERATURE.
      RH  - RELATIVE HUMIDITY.  PRES - PRESSURE.
      HX  - HEAT INDEX.         WCI  - WIND CHILL INDEX.

*  THESE STATIONS ARE NOT NWS OR FAA STATIONS AND ARE NOT UNDER
   NWS QUALITY CONTROL.

LAZ040-048-061>063-065-066-069-240100-
SOUTHEAST LOUISIANA

CITY           SKY/WX    TMP DP  RH WIND       PRES   REMARKS
N.O. INTL ARPT PTCLDY    75  65  70 SE13      30.17R
6HR MIN TEMP:  75; 6HR MAX TEMP:  83;

N.O. LAKEFRONT CLEAR     73  67  81 E18       30.18R
6HR MIN TEMP:  73; 6HR MAX TEMP:  80;

N.O. DOWNTOWN*   N/A     76  66  71 VRB7      30.18R
6HR MIN TEMP:  75; 6HR MAX TEMP:  82;

RESERVE*       FAIR      76  67  73 E7        30.16R
6HR MIN TEMP:  76; 6HR MAX TEMP:  86;

SLIDELL        MOCLDY    72  64  76 E9        30.19R
6HR MIN TEMP:  72; 6HR MAX TEMP:  81;

BATON ROUGE    CLEAR     78  63  59 E14       30.13R
6HR MIN TEMP:  78; 6HR MAX TEMP:  86;

BOOTHVILLE     MOCLDY    71  69  93 E7        30.19R
6HR MIN TEMP:  71; 6HR MAX TEMP:  77;

BELLE CHASSE   PTCLDY    77  66  68 E10       30.18R
BOGALUSA*      FAIR      76  62  61 S9        30.19R
6HR MIN TEMP:  76; 6HR MAX TEMP:  85;

GALLIANO*      PTCLDY    74  65  74 E6        30.17R
6HR MIN TEMP:  74; 6HR MAX TEMP:  79;

NEW ROADS*     FAIR      80  59  49 SE10      30.11S
6HR MIN TEMP:  79; 6HR MAX TEMP:  84;

GONZALES*      FAIR      78  60  54 E5        30.14R
6HR MIN TEMP:  78; 6HR MAX TEMP:  85;

HAMMOND*       CLEAR     72  63  73 SE9       30.17R
HOUMA*         CLEAR     75  66  73 E12       30.15
PORT FOURCHON* CLEAR     73  66  78 SE10      30.18R

$$

LAZ041-044-053-054-240100-
SOUTHWEST LOUISIANA

CITY           SKY/WX    TMP DP  RH WIND       PRES   REMARKS
LAKE CHARLES   CLEAR     75  59  57 S9        30.11S
6HR MIN TEMP:  75; 6HR MAX TEMP:  83;

LAFAYETTE      CLEAR     81  57  43 S8        30.12R
6HR MIN TEMP:  81; 6HR MAX TEMP:  87;

PATTERSON      CLEAR     75  66  73 S7        30.14R
6HR MIN TEMP:  75; 6HR MAX TEMP:  84;

SALT POINT       N/A     72  65  78 VRB3      30.13R
6HR MIN TEMP:  69; 6HR MAX TEMP:  75;

NEW IBERIA     CLEAR     77  59  53 S13       30.13R
6HR MIN TEMP:  77; 6HR MAX TEMP:  86;

CHENAULT AIRPK NOT AVBL

$$

LAZ027-028-240100-
CENTRAL LOUISIANA

CITY           SKY/WX    TMP DP  RH WIND       PRES   REMARKS
FORT POLK      CLEAR     80  48  33 SE13      30.07S
6HR MIN TEMP:  80; 6HR MAX TEMP:  84;

ALEXANDRIA INT CLEAR     78  51  38 S9        30.07S
6HR MIN TEMP:  78; 6HR MAX TEMP:  84;

ALEXANDRIA     CLEAR     79  51  37 S5        30.09S
6HR MIN TEMP:  79; 6HR MAX TEMP:  87;


$$

LAZ001-002-240100-
NORTHWEST LOUISIANA

CITY           SKY/WX    TMP DP  RH WIND       PRES   REMARKS
SHREVEPORT     CLEAR     81  51  35 S18       30.01F
6HR MIN TEMP:  81; 6HR MAX TEMP:  86;

BARKSDALE AFB  CLEAR     81  48  31 S13       30.02S
6HR MIN TEMP:  78; 6HR MAX TEMP:  84;

DTN SHREVEPORT CLEAR     82  49  31 S12       30.01F
6HR MIN TEMP:  79; 6HR MAX TEMP:  85;


$$

LAZ014-016-240100-
NORTHEAST LOUISIANA

CITY           SKY/WX    TMP DP  RH WIND       PRES   REMARKS
MONROE         CLEAR     80  48  32 S7        30.07S
6HR MIN TEMP:  80; 6HR MAX TEMP:  86;

TALLULAH       CLEAR     79  52  38 S8        30.09S
6HR MIN TEMP:  79; 6HR MAX TEMP:  86;


$$




USA.gov is the U.S. government's official web portal to all federal, state and local government web resources and services.